Theta_e
326 326 326 326 326 327 330 328 325 323 323 322 321 320 318 318 317 316 316 315 314 313 312 312 312 310 308 307 306 305 304 303
323 326 325 326 327 328 328 323 322 322 322 322 320 318 316 316 315 315 314 314 313 313 312 310 307 307 306 305 304 302 299 300
323 323 326 325 324 324 323 323 322 319 318 317 317 316 315 315 314 314 313 313 313 312 310 306 306 305 305 304 303 301 303 304
321 322 322 321 321 321 321 319 318 317 316 315 315 314 313 313 314 314 313 312 311 308 306 306 305 303 303 303 300 302 305 305
320 320 318 318 318 317 316 315 315 314 314 313 313 314 314 313 313 311 309 308 307 307 306 304 301 300 300 299 303 305 304 304
319 319 318 317 317 316 315 315 315 315 314 314 314 313 311 309 309 309 308 308 307 306 303 299 298 301 302 303 303 303 302 302
318 318 318 318 317 316 316 316 316 315 314 314 312 311 311 310 310 310 308 306 304 300 298 299 300 301 301 301 301 299 299 299
318 318 318 317 317 316 316 316 316 316 314 313 312 312 311 311 310 308 305 301 299 299 299 298 299 299 299 299 299 298 298 297
317 317 316 316 316 315 315 315 314 314 314 313 311 310 309 308 306 303 300 299 299 299 299 296 296 297 297 297 297 297 296 295
317 315 315 315 315 314 314 314 314 314 313 312 310 307 306 304 302 300 300 300 299 299 295 296 296 295 294 294 294 293 293 293
315 314 314 314 314 313 313 312 312 311 309 308 307 305 303 302 301 300 300 299 298 294 293 293 294 294 293 292 292 291 291 291
314 313 313 312 312 311 310 311 310 308 307 306 305 304 302 301 301 300 300 297 294 294 294 293 292 291 290 290 289 289 289 290
313 313 312 312 311 309 308 306 305 305 305 304 304 302 302 301 300 299 298 295 294 293 293 292 291 290 289 289 289 289 289 289
312 312 310 309 308 306 304 304 304 303 303 304 303 302 301 300 298 298 296 296 294 293 292 290 290 289 289 289 288 288 288 288
311 307 307 307 305 304 304 303 302 301 302 303 302 302 301 299 297 296 295 294 293 291 290 290 289 289 288 288 288 288 288 287
307 306 306 304 304 303 301 300 300 299 300 299 301 301 300 299 299 297 295 293 291 290 290 289 289 289 288 288 288 288 287 286
305 305 305 304 302 301 300 299 298 297 296 296 297 299 299 298 298 296 294 292 290 290 289 289 289 289 288 288 287 286 285 284
304 303 303 301 300 299 298 297 296 296 295 295 297 296 296 296 296 294 294 292 290 289 289 289 289 289 288 287 285 284 284 283
302 301 300 299 298 297 297 296 295 295 294 294 295 295 294 295 295 294 292 291 289 289 289 289 288 288 286 284 284 284 283 282
Wind_Speed
22 19 18 13 11 7 11 11 6 10 15 10 8 6 4 6 4 6 10 12 15 16 22 35 36 33 31 28 27 28 29 29
23 23 17 14 19 20 22 22 19 14 14 10 10 9 6 3 5 8 10 15 19 26 28 28 25 28 28 28 28 26 28 29
20 14 18 15 10 6 6 6 11 8 8 8 8 6 4 5 8 10 17 19 24 23 25 19 21 23 27 31 30 32 27 26
16 14 13 10 9 4 2 1 1 4 3 4 5 5 9 12 15 20 20 21 26 22 18 21 24 27 28 29 32 26 29 29
16 12 10 8 8 6 8 10 11 10 9 11 15 14 13 15 18 18 20 23 22 18 22 26 31 29 30 27 20 21 23 25
14 8 7 7 7 8 7 7 13 18 17 18 14 10 11 7 12 17 19 20 22 23 28 28 24 22 19 21 22 24 25 25
4 5 3 5 6 9 9 3 3 11 11 9 12 13 13 14 20 23 22 25 28 26 22 21 18 20 22 24 26 31 30 27
13 12 8 2 5 5 4 7 13 15 11 11 12 15 17 19 21 23 24 24 23 21 21 23 26 24 23 23 23 24 23 24
7 2 1 2 4 4 7 10 11 12 14 16 15 16 18 19 20 23 20 20 18 19 21 29 22 24 25 25 22 22 25 28
10 13 8 3 5 8 9 10 10 14 15 16 17 17 19 18 20 15 17 16 19 26 31 24 25 29 27 27 28 27 25 23
14 12 10 9 9 13 17 18 18 16 17 19 21 21 17 17 13 14 16 21 29 31 23 21 23 23 24 23 23 22 22 21
13 12 13 14 16 17 17 19 20 22 22 24 26 24 19 19 23 26 26 31 27 20 17 17 22 22 22 24 24 24 23 23
10 11 12 16 21 23 25 24 18 15 22 26 20 24 25 26 27 25 28 25 19 15 17 23 22 22 24 23 24 25 26 25
8 10 18 19 22 25 19 19 18 24 28 25 22 19 25 25 27 26 19 20 21 19 20 21 21 24 26 26 26 26 25 29
14 20 19 19 18 18 19 23 23 27 29 28 35 37 26 20 19 15 16 22 19 18 18 19 23 24 24 23 26 30 34 37
18 19 17 16 18 19 17 23 24 25 28 32 34 26 20 23 34 25 21 16 15 13 17 21 20 22 25 27 30 33 36 40
20 15 16 18 19 21 24 19 19 25 32 33 33 28 29 33 26 19 13 13 14 16 20 19 19 21 26 29 31 35 36 32
16 16 18 21 19 16 15 21 26 29 29 33 27 33 37 30 20 13 15 15 13 19 18 18 19 27 26 28 34 31 29 30
17 17 17 19 15 19 22 26 30 30 32 30 33 37 37 29 19 17 10 12 18 16 15 20 25 23 27 29 28 29 31 30
Wind_Direction
126 123 115 125 134 162 162 137 143 174 192 175 182 190 215 228 236 265 274 294 298 303 304 318 317 314 309 306 302 300 301 306
93 87 102 102 95 117 138 142 151 154 181 199 212 186 190 262 289 291 301 303 304 309 297 313 308 308 310 309 310 308 306 305
79 82 82 87 104 109 118 137 174 178 192 210 223 251 284 305 301 299 302 298 299 296 305 299 301 307 306 307 313 315 306 303
86 88 94 94 84 69 6 35 185 234 228 257 267 259 272 268 273 296 305 298 302 306 294 295 305 308 307 309 308 306 300 298
86 80 81 76 82 62 34 3 355 356 329 312 309 312 315 312 297 294 297 305 304 295 297 304 309 308 305 307 304 299 299 301
84 53 36 45 47 27 33 24 353 348 337 327 325 316 305 287 282 295 298 295 299 297 305 317 320 320 308 302 302 304 307 306
102 115 86 13 357 7 13 66 3 8 343 306 292 293 291 283 291 299 301 308 313 324 327 326 319 311 308 305 305 303 304 306
131 145 148 99 353 6 354 306 306 296 292 295 288 286 287 289 293 302 315 320 325 330 327 324 317 312 311 309 302 302 305 301
158 164 262 41 48 355 317 311 309 291 286 287 295 298 297 298 305 319 327 322 319 316 314 319 317 314 309 310 306 305 307 306
112 87 84 53 348 342 339 325 300 293 289 288 300 311 314 322 327 324 317 310 313 318 325 324 322 321 319 321 319 322 324 325
75 67 56 31 0 340 327 323 316 308 311 316 313 314 323 318 302 303 303 309 316 322 331 326 324 328 327 327 328 328 327 326
33 19 5 352 342 341 332 319 317 324 321 319 313 308 299 294 295 292 296 310 314 325 325 318 319 319 320 322 324 324 322 318
25 0 341 338 331 328 327 323 335 327 321 316 313 314 299 293 288 288 299 313 321 311 308 312 316 317 319 321 319 315 311 306
31 356 348 337 333 335 348 340 333 324 321 314 306 287 283 299 300 300 291 305 297 297 306 308 312 315 317 315 313 307 306 309
359 349 352 346 344 346 339 334 331 325 313 312 313 314 298 293 284 284 299 318 286 302 308 307 315 316 311 309 305 302 308 310
357 348 349 351 341 339 336 332 333 337 333 334 324 319 293 287 296 268 310 292 297 302 311 310 316 314 306 301 301 303 309 310
350 356 347 340 334 328 331 332 333 334 339 342 336 315 310 310 293 306 300 279 290 313 315 314 315 310 308 306 306 311 313 316
357 351 340 332 333 335 334 332 333 338 337 334 331 333 334 328 309 319 270 289 304 331 311 311 311 314 307 311 314 317 316 318
345 340 338 337 334 327 330 335 335 334 329 322 322 330 332 320 302 300 265 291 329 315 307 315 323 312 316 322 319 318 316 317